Location: Newark
(47.3150°N, 5.1150°E)
Time: 23:32:30
(UTC+00:00)

AO-7 - Pass Details

Date: 24 December 2019
Orbit: 1440 x 1458 km, 101.8° (Epoch: 20 January)

Event Time Altitude Azimuth Distance (km) Brightness Sun altitude
Rises 04:54:19 0° 16° (NNE) 4,566 ? -24.3°
Reaches altitude 10° 04:57:15 10° 10° (N) 3,587 ? -23.9°
Maximum altitude 05:04:57 44° 303° (WNW) 1,943 ? -22.6°
Enters shadow 05:08:26 30° 256° (WSW) 2,372 ? -22.0°
